This is the latest recevied weather packets stored in our database for station/object K7AEL. If no packets are shown the sender has not sent any weather packets the latest 1 day(s).
| Time | Temp. | Humidity | Pressure | Rain* | Wind** | Luminosity | Snow |
|---|---|---|---|---|---|---|---|
| 1778022578 | 25.56° C | 27% | 1010.9 hPa | 0 mm | 1.79 m/s, 177° | 397 W/m² | - |
| 1778022276 | 25.56° C | 28% | 1010.9 hPa | 0 mm | 1.79 m/s, 178° | 426 W/m² | - |
| 1778021972 | 25.56° C | 29% | 1010.8 hPa | 0 mm | 4.02 m/s, 269° | 450 W/m² | - |
| 1778021669 | 25° C | 29% | 1010.8 hPa | 0 mm | 2.24 m/s, 219° | 492 W/m² | - |
| 1778021365 | 25.56° C | 29% | 1010.8 hPa | 0 mm | 3.13 m/s, 343° | 501 W/m² | - |
| 1778021062 | 26.11° C | 28% | 1010.9 hPa | 0 mm | 0.89 m/s, 238° | 510 W/m² | - |
| 1778020759 | 25.56° C | 29% | 1011 hPa | 0 mm | 1.34 m/s, 268° | 519 W/m² | - |
| 1778020456 | 24.44° C | 29% | 1011 hPa | 0 mm | 1.79 m/s, 274° | 525 W/m² | - |
| 1778020152 | 24.44° C | 30% | 1011.2 hPa | 0 mm | 2.68 m/s, 210° | 132 W/m² | - |
| 1778019848 | 24.44° C | 29% | 1011.1 hPa | 0 mm | 2.24 m/s, 267° | 177 W/m² | - |
| 1778019545 | 24.44° C | 31% | 1011.3 hPa | 0 mm | 1.79 m/s, 271° | 176 W/m² | - |
| 1778019242 | 25° C | 31% | 1011.3 hPa | 0 mm | 1.34 m/s, 195° | 138 W/m² | - |
| 1778018939 | 25° C | 30% | 1011.2 hPa | 0 mm | 0.45 m/s, 187° | 654 W/m² | - |
| 1778018636 | 25° C | 30% | 1011.3 hPa | 0 mm | 0.89 m/s, 187° | 205 W/m² | - |
| 1778018333 | 24.44° C | 31% | 1011.4 hPa | 0 mm | 1.34 m/s, 201° | 668 W/m² | - |
| 1778018031 | 25° C | 31% | 1011.4 hPa | 0 mm | 2.24 m/s, 172° | 430 W/m² | - |
| 1778017729 | 25° C | 30% | 1011.7 hPa | 0 mm | 1.34 m/s, 219° | 621 W/m² | - |
| 1778017426 | 25° C | 30% | 1011.4 hPa | 0 mm | 0.89 m/s, 151° | 562 W/m² | - |
| 1778017123 | 25.56° C | 30% | 1011.8 hPa | 0 mm | 2.24 m/s, 229° | 216 W/m² | - |
| 1778016821 | 24.44° C | 31% | 1011.6 hPa | 0 mm | 0.45 m/s, 303° | 211 W/m² | - |
| 1778016517 | 25.56° C | 30% | 1011.7 hPa | 0 mm | 1.79 m/s, 148° | 668 W/m² | - |
| 1778016214 | 25.56° C | 32% | 1012 hPa | 0 mm | 1.79 m/s, 246° | 736 W/m² | - |
| 1778015910 | 24.44° C | 33% | 1011.8 hPa | 0 mm | 1.79 m/s, 12° | 732 W/m² | - |
| 1778015608 | 23.89° C | 36% | 1012 hPa | 0 mm | 0 m/s | 713 W/m² | - |
| 1778015304 | 23.33° C | 37% | 1012.1 hPa | 0 mm | 1.79 m/s, 5° | 810 W/m² | - |
* Rain latest hour (hover to see other rain measurements)
** Current wind speed in m/s (hover to see current wind gust speed)